Location: Shenandoah County Park
(38.9356°N, 78.4524°W)
Time: 00:07:00
(UTC-04:00)

Transit 4A - Pass Details

Date: 16 June 2023
Orbit: 862 x 981 km, 66.8° (Epoch: 02 October)

Event Time Altitude Azimuth Distance (km) Brightness Sun altitude
Rises 22:46:43 0° 319° (NW) 3,675 12.7 -18.7°
Reaches altitude 10° 22:49:43 10° 306° (NW) 2,732 11.4 -19.1°
Maximum altitude 22:54:46 25° 254° (WSW) 1,855 9.6 -19.6°
Enters shadow 22:59:19 12° 204° (SSW) 2,578 9.9 -20.1°
